N8DH Weather Reports


time (UTC)temp
C
wind
direction
speed
KPH
gust
KPH
rain 1hr
cm
rain 24hr
cm
rain mn
cm
humidity
%
barometer
mb
20260903060033 26 360 4.8 11.3 0.00 0.00 0.00 76 1008.0
20260903054623 26 272 1.6 9.7 0.00 0.00 0.00 79 1008.1
20260903053043 27 248 1.6 6.4 0.00 0.00 0.00 79 1007.2
20260903051618 27 256 4.8 11.3 0.00 0.00 0.00 78 1007.1
20260903050009 27 251 6.4 14.5 0.00 0.00 0.00 77 1006.8
20260903044542 27 201 4.8 14.5 0.00 0.00 0.00 77 1006.5
20260903043112 27 290 6.4 12.9 0.00 0.00 0.00 77 1006.5
20260903041517 26 202 4.8 9.7 0.00 0.00 0.00 79 1006.3
20260903040051 26 209 3.2 9.7 0.00 0.00 0.00 79 1006.2
20260903034647 26 215 3.2 9.7 0.00 0.00 0.00 79 1006.0
20260903033017 26 209 6.4 11.3 0.00 0.00 0.00 78 1005.7
20260903031600 26 218 6.4 12.9 0.00 0.00 0.00 77 1005.6
20260903030027 26 165 4.8 11.3 0.00 0.00 0.00 77 1006.1
20260903024603 26 193 3.2 9.7 0.00 0.00 0.00 78 1006.4
20260903023006 26 176 1.6 8.0 0.00 0.00 0.00 77 1006.6
20260903021545 26 203 1.6 4.8 0.00 0.00 0.00 77 1006.7
20260903020113 26 179 0.0 4.8 0.00 0.00 0.00 78 1006.8
20260903014643 26 157 0.0 8.0 0.00 0.00 0.00 78 1006.9
20260903013005 26 167 0.0 3.2 0.00 0.00 0.00 78 1006.9
20260903011547 27 154 0.0 4.8 0.00 0.00 0.00 76 1006.9
20260903010113 27 171 1.6 6.4 0.00 0.00 0.00 74 1006.8
20260903004641 28 196 4.8 8.0 0.00 0.00 0.00 73 1006.7
20260903003138 28 197 3.2 4.8 0.00 0.00 0.00 72 1006.6
20260903001653 28 210 3.2 6.4 0.00 0.00 0.00 72 1006.6
20260903000013 29 204 1.6 8.0 0.00 0.00 0.00 70 1006.5
20260902234609 29 205 1.6 8.0 0.00 0.00 0.00 69 1006.5
20260902233142 30 205 1.6 6.4 0.00 0.00 0.00 69 1006.5
20260902231544 30 205 3.2 8.0 0.00 0.00 0.00 67 1006.5
20260902230106 31 188 3.2 8.0 0.00 0.00 0.00 66 1006.3
20260902224641 31 210 4.8 11.3 0.00 0.00 0.00 64 1006.4
20260902223149 31 238 4.8 14.5 0.00 0.00 0.00 63 1006.4
20260902221535 32 198 6.4 14.5 0.00 0.00 0.00 63 1006.4
20260902220118 32 201 6.4 9.7 0.00 0.00 0.00 62 1006.4
20260902214528 32 242 6.4 16.1 0.00 0.00 0.00 61 1006.6
20260902213104 32 202 3.2 11.3 0.00 0.00 0.00 62 1006.5
20260902211644 32 215 8.0 17.7 0.00 0.00 0.00 58 1006.7
20260902210007 33 186 3.2 20.9 0.00 0.00 0.00 57 1006.9
20260902204558 33 175 6.4 14.5 0.00 0.00 0.00 59 1007.0
20260902201606 33 219 6.4 16.1 0.00 0.00 0.00 58 1007.3
20260902200030 33 203 6.4 19.3 0.00 0.00 0.00 59 1007.3
20260902194555 33 226 4.8 17.7 0.00 0.00 0.00 56 1007.5
20260902193135 33 203 6.4 20.9 0.00 0.00 0.00 58 1007.6
20260902191634 33 242 8.0 22.5 0.00 0.00 0.00 59 1007.8
20260902190028 33 245 4.8 11.3 0.00 0.00 0.00 62 1007.9
20260902184537 33 184 8.0 12.9 0.00 0.00 0.00 60 1008.0
20260902183100 33 215 6.4 14.5 0.00 0.00 0.00 62 1008.2
20260902181637 32 207 6.4 16.1 0.00 0.00 0.00 63 1008.4
20260902180137 32 233 8.0 16.1 0.00 0.00 0.00 63 1008.4
20260902174639 32 173 4.8 11.3 0.00 0.00 0.00 63 1008.7
20260902173137 32 202 4.8 9.7 0.00 0.00 0.00 65 1008.8
20260902171644 31 242 4.8 11.3 0.00 0.00 0.00 65 1009.1
20260902170026 31 167 6.4 11.3 0.00 0.00 0.00 67 1009.3
20260902164601 31 205 4.8 11.3 0.00 0.00 0.00 65 1009.3
20260902163141 31 155 3.2 6.4 0.00 0.00 0.00 67 1009.4
20260902161535 30 210 3.2 8.0 0.00 0.00 0.00 69 1009.4
20260902160126 30 268 1.6 4.8 0.00 0.00 0.00 71 1009.4
20260902154510 30 211 1.6 6.4 0.00 0.00 0.00 74 1009.6
20260902153058 30 178 4.8 9.7 0.00 0.00 0.00 72 1009.5
20260902151642 29 245 3.2 8.0 0.00 0.00 0.00 73 1009.5
20260902150016 29 179 3.2 8.0 0.00 0.00 0.00 75 1009.5
20260902144549 28 259 3.2 9.7 0.00 0.00 0.00 77 1009.5
20260902143006 28 279 3.2 8.0 0.00 0.00 0.00 77 1009.5
20260902141513 27 193 3.2 11.3 0.00 0.00 0.00 79 1009.3
20260902140100 27 192 3.2 12.9 0.00 0.00 0.00 81 1009.2
20260902134522 27 209 4.8 11.3 0.00 0.00 0.00 81 1009.2
20260902133105 26 202 3.2 8.0 0.00 0.00 0.00 83 1009.1
20260902131511 26 219 3.2 9.7 0.00 0.00 0.00 85 1009.1
20260902130100 25 235 3.2 11.3 0.00 0.00 0.00 85 1009.0
20260902124544 25 200 3.2 8.0 0.00 0.00 0.00 86 1009.2
20260902123142 25 205 1.6 6.4 0.00 0.00 0.00 88 1009.2
20260902121652 25 212 3.2 8.0 0.00 0.00 0.00 88 1009.2
20260902120013 24 194 1.6 4.8 0.00 0.00 0.00 87 1009.2
20260902114554 24 335 0.0 3.2 0.00 0.00 0.00 88 1009.0
20260902113144 23 179 0.0 6.4 0.00 0.00 0.00 89 1008.8
20260902111656 23 180 0.0 4.8 0.00 0.00 0.00 90 1008.5
20260902110151 23 182 3.2 6.4 0.00 0.00 0.00 90 1008.5
20260902104651 23 176 0.0 4.8 0.00 0.00 0.00 90 1008.4
20260902103147 23 204 1.6 3.2 0.00 0.00 0.00 90 1008.4
20260902101540 23 197 1.6 4.8 0.00 0.00 0.00 90 1008.4
20260902100112 23 221 3.2 6.4 0.00 0.00 0.00 90 1008.4
20260902094638 23 198 3.2 6.4 0.00 0.00 0.00 90 1008.4
20260902093027 23 180 1.6 4.8 0.00 0.00 0.00 91 1008.5
20260902091557 22 198 1.6 6.4 0.00 0.00 0.00 92 1008.5
20260902090035 22 186 0.0 3.2 0.00 0.00 0.00 92 1008.6
20260902084611 22 190 0.0 3.2 0.00 0.00 0.00 93 1008.7
20260902083025 22 175 0.0 3.2 0.00 0.00 0.00 95 1008.6
20260902081607 22 170 0.0 3.2 0.00 0.00 0.00 95 1008.5
20260902080139 22 165 0.0 3.2 0.00 0.00 0.00 95 1008.4
20260902074547 21 144 0.0 3.2 0.00 0.00 0.00 95 1008.3
20260902073115 22 144 0.0 1.6 0.00 0.00 0.00 95 1008.4
20260902071646 22 144 0.0 1.6 0.00 0.00 0.00 95 1008.4
20260902070026 22 144 1.6 1.6 0.00 0.00 0.00 95 1008.4
20260902064600 22 166 0.0 1.6 0.00 0.00 0.00 95 1008.5
20260902063031 22 210 0.0 3.2 0.00 0.00 0.00 95 1008.6